KE4U-1 Weather Reports


Display with metric or nautical units.
time (UTC)temp
F
wind
direction
speed
MPH
gust
MPH
rain 1hr
in
rain 24hr
in
rain mn
in
humidity
%
barometer
mb
20210802030203 75 0 0.0 0.0 0.00 0.00 0.00 95 1003.7
20210802025002 75 0 0.0 0.0 0.00 0.00 0.00 95 1003.6
20210802023801 75 0 0.0 0.0 0.00 0.00 0.00 95 1003.4
20210802022601 75 0 0.0 0.0 0.00 0.00 0.00 95 1003.2
20210802021405 75 0 0.0 0.0 0.00 0.00 0.00 94 1003.2
20210802015001 76 0 0.0 0.0 0.00 0.00 0.00 93 1003.2
20210802013803 76 0 0.0 0.0 0.00 0.00 0.00 93 1003.1
20210802012601 76 0 0.0 0.0 0.00 0.00 0.00 92 1003.1
20210802005002 78 0 0.0 0.0 0.00 0.00 0.00 90 1002.4
20210802003800 78 0 0.0 0.0 0.00 0.00 0.00 88 1002.1
20210802002602 79 0 0.0 0.0 0.00 0.00 0.00 88 1001.9
20210802001403 79 0 0.0 0.0 0.00 0.00 0.00 86 1001.9
20210802000200 80 0 0.0 0.0 0.00 0.00 0.00 86 1001.8
20210801235005 81 0 0.0 0.0 0.00 0.00 0.00 85 1001.6
20210801233801 81 0 0.0 0.0 0.00 0.00 0.00 84 1001.5
20210801232601 81 0 0.0 0.0 0.00 0.00 0.00 82 1001.4
20210801231403 82 0 0.0 0.0 0.00 0.00 0.00 83 1001.5
20210801230205 82 0 0.0 0.0 0.00 0.00 0.00 82 1001.4
20210801223802 83 0 0.0 0.0 0.00 0.00 0.00 81 1001.4
20210801221606 85 0 0.0 0.0 0.00 0.00 0.00 74 1001.3
20210801220406 85 0 0.0 0.0 0.00 0.00 0.00 71 1001.2
20210801214930 85 0 0.0 0.0 0.00 0.00 0.00 74 1000.8
20210801213731 86 0 0.0 0.0 0.00 0.00 0.00 74 1000.9
20210801212533 87 0 0.0 3.0 0.00 0.00 0.00 69 1000.6
20210801210703 87 0 0.0 1.0 0.00 0.00 0.00 71 1000.7
20210801205501 87 0 0.0 4.0 0.00 0.00 0.00 68 1000.6
20210801204303 86 0 0.0 2.0 0.00 0.00 0.00 72 1000.5
20210801203102 86 0 0.0 4.0 0.00 0.00 0.00 72 1000.8
20210801201902 85 0 0.0 4.0 0.00 0.00 0.00 77 1001.0
20210801200701 83 0 0.0 2.0 0.00 0.00 0.00 79 1001.2
20210801195502 82 0 0.0 0.0 0.00 0.00 0.00 79 1001.2
20210801194302 84 0 0.0 1.0 0.00 0.00 0.00 74 1001.4
20210801193102 85 0 0.0 2.0 0.00 0.00 0.00 70 1001.3
20210801191902 87 0 0.0 5.0 0.00 0.00 0.00 69 1001.4
20210801190836 88 0 0.0 4.0 0.00 0.00 0.00 67 1001.3
20210801185504 87 0 0.0 2.0 0.00 0.00 0.00 75 1001.7
20210801184302 86 0 0.0 2.0 0.00 0.00 0.00 75 1001.7
20210801183102 86 0 0.0 1.0 0.00 0.00 0.00 74 1001.9
20210801181902 87 0 0.0 5.0 0.00 0.00 0.00 71 1001.7
20210801180704 88 0 0.0 3.0 0.00 0.00 0.00 69 1001.6
20210801175502 88 0 0.0 5.0 0.00 0.00 0.00 74 1001.6
20210801174302 87 0 0.0 3.0 0.00 0.00 0.00 74 1001.7
20210801173116 87 0 0.0 3.0 0.00 0.00 0.00 72 1001.7
20210801171901 86 0 0.0 3.0 0.00 0.00 0.00 77 1001.8
20210801170702 86 0 0.0 3.0 0.00 0.00 0.00 74 1002.0
20210801165504 84 0 0.0 3.0 0.00 0.00 0.00 79 1002.0
20210801164303 84 0 0.0 3.0 0.00 0.00 0.00 83 1002.0
20210801163104 83 0 0.0 2.0 0.00 0.00 0.00 84 1002.2
20210801161901 83 0 0.0 0.0 0.00 0.00 0.00 83 1002.5
20210801160701 83 0 0.0 0.0 0.00 0.00 0.00 82 1002.7
20210801155503 84 0 0.0 1.0 0.00 0.00 0.00 79 1002.8
20210801154301 84 0 0.0 2.0 0.00 0.00 0.00 77 1002.7
20210801153102 84 0 0.0 3.0 0.00 0.00 0.00 76 1002.7
20210801150801 84 0 0.0 2.0 0.00 0.00 0.00 75 1002.5
20210801145601 83 0 0.0 2.0 0.00 0.00 0.00 74 1002.4
20210801142000 80 0 0.0 3.0 0.00 0.00 0.00 80 1002.3
20210801140800 79 0 0.0 2.0 0.00 0.00 0.00 81 1002.1
20210801135602 78 0 0.0 2.0 0.00 0.00 0.00 86 1002.1
20210801134401 78 0 0.0 0.0 0.00 0.00 0.00 89 1001.9
20210801133203 77 0 0.0 0.0 0.00 0.00 0.00 91 1002.0
20210801132001 77 0 0.0 0.0 0.00 0.00 0.00 91 1002.0
20210801130617 76 0 0.0 2.0 0.00 0.00 0.00 93 1002.0
20210801125416 76 0 0.0 0.0 0.00 0.00 0.00 96 1001.8
20210801124216 76 0 0.0 1.0 0.00 0.00 0.00 96 1001.6
20210801123016 76 0 0.0 1.0 0.00 0.00 0.00 97 1001.6
20210801121816 76 0 0.0 1.0 0.00 0.00 0.00 96 1002.2
20210801115416 75 0 0.0 2.0 0.00 0.00 0.00 97 1002.2
20210801114216 74 0 0.0 0.0 0.00 0.00 0.00 97 1002.3
20210801113047 74 0 0.0 0.0 0.00 0.00 0.00 97 1002.2
20210801113015 74 0 0.0 0.0 0.00 0.00 0.00 97 1002.2
20210801111816 74 0 0.0 0.0 0.00 0.00 0.00 97 1002.1
20210801110617 74 0 0.0 0.0 0.00 0.00 0.00 97 1002.3
20210801105416 73 0 0.0 0.0 0.00 0.00 0.00 97 1002.2
20210801104216 73 0 0.0 0.0 0.00 0.00 0.00 96 1002.3
20210801103020 73 0 0.0 0.0 0.00 0.00 0.00 96 1002.3
20210801101817 73 0 0.0 0.0 0.00 0.00 0.00 96 1002.4
20210801100617 73 0 0.0 0.0 0.00 0.00 0.00 97 1002.3
20210801095253 73 0 0.0 0.0 0.00 0.00 0.00 97 1002.2
20210801094054 72 0 0.0 0.0 0.00 0.00 0.00 97 1002.2
20210801092853 72 0 0.0 0.0 0.00 0.00 0.00 96 1002.2
20210801091653 72 0 0.0 0.0 0.00 0.00 0.00 96 1002.2
20210801090453 73 0 0.0 0.0 0.00 0.00 0.00 96 1002.3
20210801085253 73 0 0.0 0.0 0.00 0.00 0.00 96 1002.4
20210801084053 73 0 0.0 0.0 0.00 0.00 0.00 96 1002.6
20210801082854 72 0 0.0 0.0 0.00 0.00 0.00 96 1002.7
20210801081654 72 0 0.0 0.0 0.00 0.00 0.00 96 1002.9
20210801075543 73 0 0.0 0.0 0.00 0.00 0.00 96 1003.0
20210801074342 73 0 0.0 0.0 0.00 0.00 0.00 96 1002.9
20210801073143 73 0 0.0 0.0 0.00 0.00 0.00 96 1002.9
20210801071942 73 0 0.0 0.0 0.00 0.00 0.00 96 1002.9
20210801070743 73 0 0.0 0.0 0.00 0.00 0.00 96 1002.9
20210801065543 73 0 0.0 0.0 0.00 0.00 0.00 96 1002.9
20210801064342 73 0 0.0 0.0 0.00 0.00 0.00 96 1003.0
20210801063142 73 0 0.0 0.0 0.00 0.00 0.00 96 1003.2
20210801061943 74 0 0.0 0.0 0.00 0.00 0.00 96 1003.2
20210801060744 74 0 0.0 0.0 0.00 0.00 0.00 96 1003.2
20210801055543 73 0 0.0 0.0 0.00 0.00 0.00 96 1003.3
20210801054345 73 0 0.0 0.0 0.00 0.00 0.00 96 1003.4
20210801053143 73 0 0.0 0.0 0.00 0.00 0.00 96 1003.2
20210801051942 73 0 0.0 0.0 0.00 0.00 0.00 95 1003.4
20210801050742 73 0 0.0 0.0 0.00 0.00 0.00 95 1003.8
20210801045542 73 0 0.0 0.0 0.00 0.00 0.00 95 1003.8
20210801044344 73 0 0.0 0.0 0.00 0.00 0.00 94 1003.9
20210801043142 73 0 0.0 0.0 0.00 0.00 0.00 94 1003.9
20210801041943 73 0 0.0 0.0 0.00 0.00 0.00 94 1003.9
20210801040742 74 0 0.0 0.0 0.00 0.00 0.00 94 1003.8
20210801035542 74 0 0.0 0.0 0.00 0.00 0.00 93 1003.7
20210801034342 74 0 0.0 0.0 0.00 0.00 0.00 93 1003.8
20210801033143 74 0 0.0 0.0 0.00 0.00 0.00 93 1004.0
20210801031943 75 0 0.0 0.0 0.00 0.00 0.00 92 1004.2
20210801030742 75 0 0.0 0.0 0.00 0.00 0.00 92 1004.4